[[{"header":{"parameterUnit":"m.s-1","parameterCategory":1,"la1":30.2991,"la2":30.254,"lo1":-89.0895,"lo2":-89.0444,"dy":0.0017,"dx":0.0017,"nx":28,"ny":28,"refTime":"2025-06-11T21:00:00:Z","depth":0,"parameterNumber":2,"parameterNumberName":"U-component_of_WINDS"},"data":[0,0,0,0,0,0,0,0,0,0,0,0,0,0,0,0,0,0,0,0,0,0,0,0,0,0,0,0,0,0,0,0,0,0,0,0,0,0,0,0,0,0,0,0,0,0,0,0,0,0,0,0,0,0,0,0,0,0,-2.5414,-2.5413,0,-2.5325,-2.5324,-2.5323,-2.5289,-2.5289,-2.529,-2.529,-2.519,-2.5187,-2.5184,0,0,0,0,0,0,0,0,0,0,0,0,0,-2.5547,-2.5544,-2.5414,-2.5413,-2.5412,-2.5325,-2.5323,-2.5322,-2.5289,-2.5289,-2.529,-2.529,-2.5191,-2.5188,-2.5184,0,0,0,0,0,0,0,0,0,0,0,0,0,-2.5476,-2.5544,-2.5414,-2.5385,-2.5381,-2.5325,-2.5323,-2.5322,-2.5289,-2.5289,-2.529,-2.529,-2.5192,-2.5188,-2.5184,-2.5147,0,0,-2.517,-2.5168,0,0,0,0,0,0,0,0,-2.548,-2.5471,-2.539,-2.5387,-2.5383,-2.5319,-2.5334,-2.5263,-2.5289,-2.5324,-2.529,-2.529,-2.5232,-2.5224,-2.5206,-2.5143,-2.5139,-2.517,-2.5167,-2.5165,-2.5164,0,0,0,0,0,0,0,-2.5485,-2.5475,-2.5378,-2.5389,-2.5384,-2.5373,-2.5364,-2.532,-2.5276,-2.5321,-2.5318,-2.5308,-2.523,-2.5211,-2.5204,-2.5137,-2.517,-2.5166,-2.5163,-2.5162,-2.5036,-2.5036,0,0,0,0,0,0,-2.5496,-2.5479,-2.5381,-2.5376,-2.5434,-2.537,-2.536,-2.5338,-2.5277,-2.5268,-2.5308,-2.5307,-2.5218,-2.5209,-2.52,-2.5152,-2.5165,-2.5161,-2.5159,-2.5037,-2.5036,-2.5035,0,0,0,0,0,0,-2.5499,-2.5488,-2.5385,-2.5427,-2.5413,-2.5368,-2.5344,-2.5336,-2.5317,-2.5267,-2.5258,-2.5297,-2.5218,-2.5206,-2.5161,-2.5148,-2.5159,-2.5155,-2.5038,-2.5037,-2.5036,-2.5056,0,0,0,0,0,0,-2.5503,-2.5489,-2.5477,-2.5427,-2.5411,-2.535,-2.5343,-2.5334,-2.5311,-2.5309,-2.5254,-2.5246,-2.5217,-2.5168,-2.5156,-2.5142,-2.5152,-2.5039,-2.5037,-2.5036,-2.5057,-2.5056,-2.5056,0,0,0,0,0,-2.5508,-2.5485,-2.5477,-2.5465,-2.5395,-2.5349,-2.534,-2.531,-2.531,-2.5296,-2.5263,-2.5247,-2.5152,-2.5163,-2.515,-2.5135,-2.5039,-2.5038,-2.5036,-2.5057,-2.5056,-2.5056,0,0,0,0,0,0,-2.5533,-2.5478,-2.5468,-2.5429,-2.5394,-2.5344,-2.5325,-2.5311,-2.5273,-2.5272,-2.5234,-2.5222,-2.5179,-2.5152,-2.5166,-2.5095,-2.5094,-2.509,-2.5114,-2.5113,-2.5113,-2.5119,-2.5148,0,0,0,0,0,-2.5534,-2.5504,-2.5457,-2.5427,-2.541,-2.5371,-2.535,-2.533,-2.5291,-2.5275,-2.5239,-2.52,-2.5161,-2.5136,-2.5097,-2.5053,-2.5039,-2.5035,-2.5035,-2.5035,-2.5031,-2.5003,-2.5,-2.503,-2.503,-2.503,0,0,-2.5535,-2.5502,-2.5485,-2.5431,-2.5402,-2.5368,-2.5359,-2.5324,-2.5298,-2.5269,-2.5224,-2.5197,-2.515,-2.5105,-2.5083,-2.5081,-2.502,-2.5033,-2.5033,-2.5029,-2.5001,-2.4998,-2.4996,-2.5029,-2.5029,-2.503,0,0,-2.5521,-2.5494,-2.5465,-2.5437,-2.5393,-2.5367,-2.536,-2.5311,-2.5293,-2.5248,-2.5225,-2.5191,-2.5125,-2.5093,-2.5067,-2.5039,-2.5022,-2.5027,-2.5025,-2.4998,-2.4995,-2.4993,-2.498,-2.4977,-2.5024,-2.5024,-2.5024,0,-2.5528,-2.548,-2.5452,-2.5418,-2.5394,-2.5369,-2.5337,-2.5309,-2.5255,-2.5237,-2.5236,-2.5152,-2.5118,-2.5064,-2.5057,-2.5038,-2.5026,-2.5033,-2.4999,-2.4996,-2.4993,-2.4981,-2.4976,-2.5025,-2.5025,-2.5025,-2.5025,0,-2.5489,-2.5456,-2.5437,-2.5387,-2.536,-2.5328,-2.5292,-2.5268,-2.525,-2.5223,-2.5175,-2.5135,-2.5087,-2.5072,-2.5054,-2.5014,-2.5014,-2.5007,-2.5004,-2.4992,-2.4979,-2.4974,-2.5026,-2.5026,-2.5025,-2.5025,0,0,-2.5488,-2.5423,-2.5416,-2.5392,-2.5342,-2.5314,-2.5279,-2.5234,-2.5213,-2.5175,-2.5143,-2.5087,-2.508,-2.5051,-2.5028,-2.5005,-2.4982,-2.4999,-2.4998,-2.4996,-2.4932,-2.4937,-2.4932,-2.4971,-2.497,-2.4969,-2.4935,0,-2.5466,-2.5406,-2.5378,-2.5329,-2.5296,-2.5271,-2.524,-2.5204,-2.5177,-2.5143,-2.5112,-2.5072,-2.5067,-2.5049,-2.5025,-2.499,-2.4968,-2.4992,-2.4937,-2.4935,-2.4948,-2.4926,-2.4932,-2.4902,-2.4931,-2.493,-2.4929,0,-2.5432,-2.5397,-2.5345,-2.5297,-2.5282,-2.5255,-2.5211,-2.5179,-2.5136,-2.5118,-2.5086,-2.5064,-2.5023,-2.5025,-2.4965,-2.4982,-2.4958,-2.4937,-2.4935,-2.4927,-2.4931,-2.4916,-2.4892,-2.4887,-2.4922,-2.4922,-2.4923,0,-2.5434,-2.5373,-2.5334,-2.5314,-2.5258,-2.5239,-2.5214,-2.5172,-2.5146,-2.5106,-2.5088,-2.5043,-2.5018,-2.4982,-2.4947,-2.4952,-2.489,-2.489,-2.4871,-2.4871,-2.4857,-2.4858,-2.4827,-2.4845,-2.4845,-2.4845,-2.4845,0,-2.5411,-2.538,-2.5334,-2.531,-2.5272,-2.524,-2.5203,-2.5175,-2.5138,-2.5105,-2.508,-2.5049,-2.5006,-2.4968,-2.494,-2.4894,-2.4883,-2.4864,-2.4857,-2.4866,-2.4868,-2.4848,-2.4848,-2.4844,-2.4844,-2.4845,-2.4845,0,-2.5407,-2.5376,-2.5331,-2.5281,-2.5268,-2.5242,-2.5198,-2.5171,-2.5144,-2.5102,-2.509,-2.5045,-2.4999,-2.4962,-2.4901,-2.4882,-2.4833,-2.4825,-2.4848,-2.4844,-2.4826,-2.4827,-2.4779,-2.477,-2.4797,-2.4796,-2.4796,0,-2.5394,-2.537,-2.5318,-2.5295,-2.5272,-2.5235,-2.5209,-2.5175,-2.5148,-2.5097,-2.5075,-2.5028,-2.4989,-2.4916,-2.4876,-2.4829,-2.4818,-2.4805,-2.4811,-2.482,-2.4815,-2.4816,-2.4812,-2.4804,-2.4804,-2.4804,-2.4804,0,-2.5374,-2.5359,-2.5324,-2.5282,-2.5252,-2.5217,-2.5181,-2.5163,-2.5122,-2.5092,-2.5046,-2.5016,-2.4955,-2.4907,-2.4855,-2.4825,-2.4806,-2.4802,-2.4795,-2.4802,-2.4816,-2.4806,-2.4844,-2.4803,-2.4803,-2.4803,-2.4803,-2.4803,-2.5363,-2.5339,-2.5299,-2.526,-2.5229,-2.5196,-2.5168,-2.5137,-2.5099,-2.5048,-2.503,-2.4982,-2.4936,-2.4865,-2.4835,-2.4795,-2.4793,-2.4783,-2.478,-2.4777,-2.4777,-2.4824,-2.4786,-2.4786,-2.4786,-2.4786,-2.4786,0,-2.534,-2.5312,-2.5277,-2.5228,-2.5196,-2.5184,-2.5142,-2.5115,-2.5075,-2.5036,-2.4998,-2.4943,-2.4896,-2.4853,-2.4803,-2.4778,-2.4768,-2.4766,-2.4766,-2.4759,-2.4783,-2.4794,-2.4775,-2.4775,-2.4775,-2.4775,-2.4775,-2.4775,-2.5324,-2.5282,-2.5262,-2.5204,-2.5176,-2.5131,-2.5108,-2.5075,-2.5044,-2.4985,-2.4947,-2.492,-2.4877,-2.4824,-2.4779,-2.4767,-2.4748,-2.4748,-2.4733,-2.4756,-2.4758,-2.4759,-2.4769,-2.4745,-2.4745,-2.4712,-2.4712,-2.4712]},{"header":{"parameterUnit":"m.s-1","parameterCategory":1,"la1":30.2991,"la2":30.254,"lo1":-89.0895,"lo2":-89.0444,"dy":0.0017,"dx":0.0017,"nx":28,"ny":28,"refTime":"2025-06-11T21:00:00:Z","depth":0,"parameterNumber":3,"parameterNumberName":"V-component_of_WINDS"},"data":[0,0,0,0,0,0,0,0,0,0,0,0,0,0,0,0,0,0,0,0,0,0,0,0,0,0,0,0,0,0,0,0,0,0,0,0,0,0,0,0,0,0,0,0,0,0,0,0,0,0,0,0,0,0,0,0,0,0,6.4895,6.4897,0,6.5053,6.5054,6.5056,6.5035,6.5033,6.503,6.5028,6.518,6.5186,6.5192,0,0,0,0,0,0,0,0,0,0,0,0,0,6.457,6.4576,6.4895,6.4897,6.4899,6.5052,6.5054,6.5057,6.5036,6.5033,6.503,6.5027,6.5178,6.5185,6.5193,0,0,0,0,0,0,0,0,0,0,0,0,0,6.4717,6.4578,6.4895,6.4907,6.491,6.5052,6.5055,6.5057,6.5036,6.5033,6.5029,6.5025,6.5175,6.5184,6.5194,6.533,0,0,6.5223,6.5228,0,0,0,0,0,0,0,0,6.4709,6.4729,6.4903,6.4907,6.491,6.5021,6.4996,6.5148,6.5037,6.4988,6.5028,6.5023,6.5129,6.5142,6.518,6.5337,6.5344,6.5224,6.523,6.5234,6.5237,0,0,0,0,0,0,0,6.4699,6.4722,6.4957,6.4906,6.491,6.4903,6.492,6.5024,6.5078,6.4992,6.4991,6.5011,6.513,6.5171,6.5183,6.5346,6.5224,6.5233,6.5238,6.5242,6.5627,6.5632,0,0,0,0,0,0,6.4687,6.4714,6.4952,6.4962,6.4798,6.4912,6.4931,6.4989,6.5077,6.5087,6.5014,6.5009,6.5156,6.5172,6.5189,6.5358,6.5234,6.5243,6.5249,6.5623,6.5628,6.5633,0,0,0,0,0,0,6.468,6.4708,6.4946,6.4838,6.4868,6.4922,6.4987,6.4994,6.5035,6.5093,6.5102,6.5046,6.5154,6.5175,6.5297,6.5362,6.5248,6.5256,6.5618,6.5625,6.5631,6.5694,0,0,0,0,0,0,6.467,6.4706,6.4759,6.4839,6.4874,6.5053,6.4991,6.5,6.5053,6.5048,6.5126,6.5135,6.5152,6.5283,6.5307,6.5374,6.5264,6.5612,6.5621,6.5629,6.5687,6.5702,6.5716,0,0,0,0,0,6.4659,6.4768,6.4762,6.4791,6.4942,6.5057,6.5076,6.5097,6.5058,6.5112,6.515,6.5132,6.5351,6.5295,6.5322,6.5393,6.5608,6.5618,6.5628,6.568,6.5699,6.5716,0,0,0,0,0,0,6.4689,6.4778,6.4773,6.4912,6.4978,6.5054,6.5122,6.5116,6.5192,6.5184,6.5204,6.5222,6.5346,6.5381,6.5317,6.5532,6.5474,6.549,6.5504,6.5523,6.5537,6.5527,6.5272,0,0,0,0,0,6.4713,6.4802,6.4873,6.4989,6.5023,6.5067,6.5118,6.5129,6.5196,6.5223,6.527,6.5334,6.5418,6.5472,6.5551,6.5691,6.5709,6.5753,6.5768,6.578,6.5793,6.5873,6.5895,6.5666,6.5666,6.5666,0,0,6.4761,6.4821,6.4875,6.4997,6.5049,6.5139,6.509,6.5186,6.5253,6.5236,6.5357,6.5393,6.5466,6.5599,6.5659,6.5632,6.5861,6.5792,6.5801,6.5809,6.5886,6.5907,6.5927,6.5673,6.5671,6.567,0,0,6.4896,6.495,6.5054,6.5109,6.5191,6.522,6.5245,6.5324,6.5349,6.547,6.5461,6.5539,6.5681,6.5735,6.5781,6.5941,6.5929,6.5966,6.6043,6.612,6.6138,6.6155,6.6214,6.6235,6.5979,6.5979,6.598,0,6.4945,6.5083,6.5107,6.5207,6.5262,6.5255,6.5361,6.5411,6.5513,6.5551,6.5519,6.5702,6.5749,6.5897,6.5936,6.5972,6.6002,6.5958,6.6134,6.6151,6.6166,6.6223,6.6245,6.5984,6.5983,6.5983,6.5982,0,6.5141,6.5237,6.5311,6.5416,6.5478,6.558,6.5618,6.5678,6.5684,6.5717,6.5841,6.5899,6.5993,6.6028,6.6032,6.6177,6.6158,6.613,6.6073,6.6192,6.6246,6.6268,6.599,6.5988,6.5987,6.5986,0,0,6.5298,6.5418,6.5445,6.5495,6.5586,6.566,6.5761,6.5857,6.591,6.598,6.6067,6.619,6.6167,6.6219,6.6229,6.6297,6.6424,6.6262,6.6264,6.6292,6.659,6.6612,6.6637,6.6416,6.642,6.6424,6.6585,0,6.5444,6.5629,6.5655,6.5817,6.5907,6.5904,6.5993,6.6058,6.6092,6.6171,6.6206,6.6295,6.6256,6.6288,6.6355,6.6395,6.6485,6.6383,6.6496,6.65,6.6481,6.6665,6.6688,6.6837,6.6606,6.6609,6.6612,0,6.5638,6.5721,6.5894,6.5978,6.6017,6.6097,6.6189,6.6265,6.6339,6.6359,6.642,6.6423,6.6528,6.6466,6.6611,6.6541,6.6589,6.6615,6.6622,6.6634,6.6565,6.6685,6.6885,6.6908,6.6645,6.6642,6.664,0,6.574,6.5893,6.6018,6.606,6.6159,6.6217,6.626,6.6331,6.6388,6.6467,6.6504,6.6592,6.6641,6.6709,6.6736,6.6688,6.688,6.682,6.69,6.6899,6.6941,6.6939,6.7154,6.6968,6.6968,6.6967,6.6967,0,6.5901,6.6008,6.6066,6.6143,6.6262,6.6291,6.6407,6.6448,6.6512,6.6596,6.6596,6.6674,6.6704,6.6787,6.6807,6.6926,6.6947,6.6965,6.697,6.6967,6.6965,6.7,6.6991,6.6973,6.6972,6.6971,6.697,0,6.6035,6.6078,6.6214,6.63,6.6324,6.6408,6.648,6.6554,6.6588,6.6695,6.6721,6.6773,6.6871,6.6905,6.7021,6.7036,6.7175,6.7169,6.7151,6.7153,6.7232,6.7226,6.7479,6.7515,6.7303,6.7305,6.7307,0,6.6136,6.6219,6.6316,6.6374,6.6422,6.6515,6.6575,6.6606,6.6668,6.6762,6.6824,6.6923,6.7003,6.7159,6.7206,6.7296,6.7294,6.7377,6.7307,6.7303,6.7299,6.7295,6.7304,6.739,6.7392,6.7394,6.7395,0,6.6312,6.6331,6.642,6.6518,6.6591,6.6668,6.6742,6.6789,6.6831,6.6901,6.7004,6.7067,6.719,6.7287,6.738,6.7422,6.7417,6.7417,6.7441,6.744,6.7428,6.7438,6.719,6.7411,6.741,6.7408,6.7408,6.7407,6.6435,6.651,6.6592,6.6692,6.6753,6.6824,6.6899,6.6945,6.7033,6.7138,6.715,6.7261,6.7335,6.746,6.7507,6.7593,6.757,6.7603,6.7612,6.7621,6.7629,6.7413,6.7609,6.7609,6.7609,6.7608,6.7608,0,6.6614,6.6668,6.676,6.6868,6.6946,6.6938,6.7021,6.7087,6.7186,6.7258,6.7339,6.7458,6.7554,6.761,6.7706,6.7764,6.7764,6.7788,6.7785,6.7796,6.7642,6.7614,6.7787,6.7787,6.7787,6.7787,6.7787,6.7787,6.6717,6.6846,6.6875,6.7034,6.7085,6.7198,6.7247,6.7313,6.7371,6.7506,6.7587,6.7625,6.7691,6.7792,6.788,6.7893,6.7929,6.7957,6.7969,6.7824,6.7806,6.7789,6.7762,6.7964,6.7964,6.8115,6.8117,6.8118]}]]